Location: Buckland
(65.9785°N, 161.1281°W)
Time: 18:21:11
(UTC+00:00)

Transit 2A Rocket - All Passes

Search period start: 04 December 2020 00:00
Search period end: 14 December 2020 00:00
Orbit: 589 x 914 km, 66.7° (Epoch: 03 December)

Date Brightness Start Highest point End Pass type
(mag) Time Alt. Az. Time Alt. Az. Time Alt. Az.
04 Dec - 11:41:59 10° S 11:46:48 29° SE 11:51:18 10° ENE visible
04 Dec - 13:23:13 10° SW 13:28:49 64° SSE 13:33:56 10° ENE visible
04 Dec - 15:05:51 10° W 15:11:26 85° N 15:16:28 10° E visible
04 Dec - 16:48:48 10° WNW 16:54:12 89° SSW 16:59:06 10° ESE visible
04 Dec - 18:31:35 10° WNW 18:36:36 49° SW 18:41:09 10° SSE visible
04 Dec - 20:14:45 10° WNW 20:18:09 18° WSW 20:21:22 10° SSW daylight
05 Dec - 11:00:12 10° SSE 11:04:29 22° ESE 11:08:31 10° ENE visible
05 Dec - 12:40:48 10° SW 12:46:18 52° SE 12:51:21 10° ENE visible
05 Dec - 14:23:10 10° WSW 14:28:47 89° SSE 14:33:52 10° ENE visible
05 Dec - 16:06:07 10° W 16:11:34 85° N 16:16:29 10° E visible
05 Dec - 17:48:56 10° WNW 17:54:07 61° SW 17:58:48 10° SE visible
05 Dec - 19:31:52 10° WNW 19:35:56 25° WSW 19:39:42 10° S daylight
06 Dec - 10:18:48 10° SSE 10:22:15 17° ESE 10:25:33 10° ENE night (unlit)
06 Dec - 11:58:30 10° SSW 12:03:49 42° SE 12:08:44 10° ENE visible
06 Dec - 13:40:32 10° WSW 13:46:09 81° SSE 13:51:16 10° ENE visible
06 Dec - 15:23:25 10° W 15:28:54 83° N 15:33:51 10° E visible
06 Dec - 17:06:18 10° WNW 17:11:34 73° SSW 17:16:20 10° ESE visible
06 Dec - 18:49:07 10° WNW 18:53:37 32° SW 18:57:47 10° S visible
06 Dec - 20:33:59 10° W 20:34:42 10° WSW 20:35:26 10° WSW daylight
07 Dec - 09:38:04 10° SE 09:40:06 12° ESE 09:42:06 10° E night (unlit)
07 Dec - 11:16:23 10° S 11:21:25 33° SE 11:26:06 10° ENE visible
07 Dec - 12:57:57 10° SW 13:03:34 71° SSE 13:08:40 10° ENE visible
07 Dec - 14:40:44 10° W 14:46:14 83° N 14:51:14 10° E visible
07 Dec - 16:23:39 10° WNW 16:28:59 84° SSW 16:33:48 10° ESE visible
07 Dec - 18:06:25 10° WNW 18:11:15 42° SW 18:15:39 10° SSE visible
07 Dec - 19:49:55 10° WNW 19:52:37 15° WSW 19:55:13 10° SW daylight
08 Dec - 10:34:27 10° S 10:39:04 26° ESE 10:43:24 10° ENE night (unlit)
08 Dec - 12:15:28 10° SW 12:21:01 59° SE 12:26:05 10° ENE visible
08 Dec - 13:58:02 10° WSW 14:03:34 87° NNW 14:08:35 10° E visible
08 Dec - 15:40:58 10° WNW 15:46:21 89° NNE 15:51:13 10° ESE visible
08 Dec - 17:23:46 10° WNW 17:28:48 53° SW 17:33:22 10° SE visible
08 Dec - 19:06:50 10° WNW 19:10:27 20° WSW 19:13:51 10° SSW visible
09 Dec - 09:52:48 10° SSE 09:56:47 20° ESE 10:00:33 10° ENE night (unlit)
09 Dec - 11:33:06 10° SSW 11:38:30 48° SE 11:43:28 10° ENE visible
09 Dec - 13:15:22 10° WSW 13:20:56 87° SSE 13:25:58 10° ENE visible
09 Dec - 14:58:18 10° W 15:03:42 84° N 15:08:35 10° E visible
09 Dec - 16:41:08 10° WNW 16:46:18 65° SSW 16:50:59 10° SE visible
09 Dec - 18:23:59 10° WNW 18:28:11 27° SW 18:32:05 10° S visible
10 Dec - 09:11:34 10° SE 09:14:34 15° ESE 09:17:27 10° ENE night (unlit)
10 Dec - 10:50:51 10° SSW 10:56:03 39° SE 11:00:51 10° ENE night (unlit)
10 Dec - 12:32:44 10° WSW 12:38:19 77° SSE 12:43:23 10° ENE visible
10 Dec - 14:15:36 10° W 14:21:02 82° N 14:25:57 10° E visible
10 Dec - 15:58:29 10° WNW 16:03:44 77° SSW 16:08:29 10° ESE visible
10 Dec - 17:41:16 10° WNW 17:45:52 35° SW 17:50:05 10° SSE visible
10 Dec - 19:25:23 10° W 19:27:03 12° WSW 19:28:40 10° SW visible
11 Dec - 08:31:33 10° ESE 08:32:26 10° ESE 08:33:19 10° E night (unlit)
11 Dec - 10:08:48 10° S 10:13:40 30° SE 10:18:11 10° ENE night (unlit)
11 Dec - 11:50:11 10° SW 11:55:44 67° SSE 12:00:48 10° ENE visible
11 Dec - 13:32:53 10° W 13:38:22 84° N 13:43:20 10° E visible
11 Dec - 15:15:49 10° WNW 15:21:07 87° SSW 15:25:55 10° ESE visible
11 Dec - 16:58:35 10° WNW 17:03:27 45° SW 17:07:54 10° SSE visible
11 Dec - 18:41:54 10° WNW 18:44:55 16° WSW 18:47:48 10° SSW visible
12 Dec - 09:26:57 10° S 09:31:20 23° ESE 09:35:26 10° ENE night (unlit)
12 Dec - 11:07:44 10° SW 11:13:12 55° SE 11:18:12 10° ENE night (unlit)
12 Dec - 12:50:12 10° WSW 12:55:43 89° NNW 13:00:43 10° ENE visible
12 Dec - 14:33:08 10° W 14:38:29 87° N 14:43:19 10° E visible
12 Dec - 16:15:57 10° WNW 16:21:00 57° SW 16:25:35 10° SE visible
12 Dec - 17:58:55 10° WNW 18:02:43 22° WSW 18:06:17 10° S visible
13 Dec - 08:45:26 10° SSE 08:49:04 18° ESE 08:52:32 10° ENE night (unlit)
13 Dec - 10:25:24 10° SSW 10:30:43 44° SE 10:35:36 10° ENE night (unlit)
13 Dec - 12:07:33 10° WSW 12:13:05 84° SSE 12:18:06 10° ENE visible
13 Dec - 13:50:27 10° W 13:55:50 83° N 14:00:41 10° E visible
13 Dec - 15:33:18 10° WNW 15:38:28 69° SSW 15:43:08 10° SE visible
13 Dec - 17:16:08 10° WNW 17:20:26 29° SW 17:24:26 10° S visible
